FW8061 Weather Reports


Display with metric or nautical units.
time (UTC)temp
F
wind
direction
speed
MPH
gust
MPH
rain 1hr
in
rain 24hr
in
rain mn
in
humidity
%
barometer
mb
20260507021030 46 245 2.0 4.0 0.00 0.00 0.00 80 1009.4
20260507020031 46 224 2.0 3.0 0.00 0.00 0.00 79 1009.4
20260507015110 46 293 2.0 4.0 0.00 0.00 0.00 81 1009.5
20260507014017 46 220 1.0 3.0 0.00 0.00 0.00 81 1009.5
20260507013017 46 204 1.0 4.0 0.00 0.00 0.00 81 1009.6
20260507012032 46 221 1.0 3.0 0.00 0.00 0.00 80 1009.5
20260507011031 46 212 2.0 3.0 0.00 0.00 0.00 81 1009.5
20260507010018 46 215 2.0 4.0 0.00 0.00 0.00 81 1009.3
20260507005018 46 222 2.0 4.0 0.00 0.00 0.00 82 1009.4
20260507004017 46 217 1.0 3.0 0.00 0.00 0.00 81 1009.2
20260507003018 46 214 2.0 4.0 0.00 0.00 0.00 80 1009.0
20260507002018 47 213 1.0 3.0 0.00 0.00 0.00 79 1008.9
20260507001018 47 216 2.0 4.0 0.00 0.00 0.00 79 1008.9
20260507000019 47 219 1.0 5.0 0.00 0.00 0.00 79 1008.9
20260506235019 47 218 1.0 3.0 0.00 0.00 0.00 78 1008.8
20260506234019 47 235 2.0 4.0 0.00 0.00 0.00 77 1008.8
20260506233016 47 298 1.0 4.0 0.00 0.00 0.00 76 1008.7
20260506232019 48 269 1.0 5.0 0.00 0.00 0.00 76 1008.6
20260506231020 48 254 2.0 4.0 0.00 0.00 0.00 74 1008.5
20260506230021 48 241 2.0 5.0 0.00 0.00 0.00 75 1008.5
20260506225039 48 297 1.0 3.0 0.00 0.00 0.00 75 1008.6
20260506224020 48 233 1.0 4.0 0.00 0.00 0.00 75 1008.6
20260506223021 48 242 2.0 5.0 0.00 0.00 0.00 75 1008.7
20260506222039 49 317 3.0 6.0 0.00 0.00 0.00 74 1008.7
20260506221017 49 302 2.0 4.0 0.00 0.00 0.00 74 1008.7
20260506220019 48 319 2.0 4.0 0.00 0.00 0.00 75 1008.7
20260506215018 48 219 2.0 6.0 0.00 0.00 0.00 75 1008.7
20260506214018 48 313 2.0 4.0 0.00 0.00 0.00 75 1008.6
20260506213018 47 315 2.0 4.0 0.00 0.00 0.00 77 1008.7
20260506212019 47 287 1.0 3.0 0.00 0.00 0.00 78 1008.6
20260506211020 47 274 1.0 3.0 0.00 0.00 0.00 79 1008.8
20260506210019 47 238 2.0 4.0 0.00 0.00 0.00 78 1009.0
20260506205019 47 232 2.0 4.0 0.00 0.00 0.00 79 1008.9
20260506204039 47 289 1.0 3.0 0.00 0.00 0.00 79 1008.9
20260506203020 47 305 2.0 4.0 0.00 0.00 0.00 78 1009.0
20260506202039 47 266 2.0 5.0 0.00 0.00 0.00 79 1009.0
20260506201016 47 316 3.0 7.0 0.00 0.00 0.00 78 1009.0
20260506200019 47 319 2.0 5.0 0.00 0.00 0.00 79 1009.0
20260506195020 47 273 1.0 2.0 0.00 0.00 0.00 79 1009.2
20260506194024 46 290 1.0 2.0 0.00 0.00 0.00 79 1009.3
20260506193023 46 266 2.0 3.0 0.00 0.00 0.00 80 1009.4
20260506192023 46 324 2.0 3.0 0.00 0.00 0.00 81 1009.4
20260506191045 46 313 3.0 5.0 0.00 0.00 0.00 81 1009.3
20260506190025 46 255 1.0 2.0 0.00 0.00 0.00 78 1009.3
20260506185024 46 0.0 0.0 0.00 0.00 0.00 79 1009.3
20260506184025 45 172 2.0 3.0 0.00 0.00 0.00 80 1009.1
20260506183024 46 196 1.0 3.0 0.00 0.00 0.00 83 1009.2
20260506182024 45 213 2.0 4.0 0.00 0.00 0.00 85 1009.1
20260506181024 45 206 2.0 4.0 0.00 0.00 0.00 87 1009.3
20260506180024 45 181 2.0 4.0 0.00 0.00 0.00 88 1009.5
20260506175045 45 209 1.0 2.0 0.00 0.00 0.00 86 1009.7
20260506174026 44 222 2.0 3.0 0.00 0.00 0.00 85 1009.7
20260506173025 44 237 1.0 2.0 0.00 0.00 0.00 88 1009.9
20260506172027 44 270 1.0 2.0 0.00 0.00 0.00 87 1010.0
20260506171025 44 233 1.0 2.0 0.00 0.00 0.00 88 1010.1
20260506170107 44 300 1.0 3.0 0.00 0.00 0.00 88 1010.2
20260506165026 43 273 2.0 3.0 0.00 0.00 0.00 87 1010.2
20260506164027 43 290 1.0 3.0 0.00 0.00 0.00 90 1010.3
20260506163026 43 318 2.0 4.0 0.00 0.00 0.00 90 1010.4
20260506162027 43 218 1.0 2.0 0.00 0.00 0.00 91 1010.4
20260506161026 43 222 1.0 3.0 0.00 0.00 0.00 90 1010.6
20260506160028 43 200 1.0 2.0 0.00 0.00 0.00 91 1010.7
20260506155028 43 214 2.0 3.0 0.00 0.00 0.00 92 1010.7
20260506154027 43 216 2.0 3.0 0.00 0.00 0.00 91 1010.7
20260506153027 43 214 1.0 2.0 0.00 0.00 0.00 92 1010.8
20260506152030 43 233 1.0 2.0 0.00 0.00 0.00 91 1011.0
20260506151027 43 204 1.0 3.0 0.00 0.00 0.00 91 1010.9
20260506150029 43 315 1.0 2.0 0.00 0.00 0.00 91 1011.0
20260506145028 43 267 0.0 2.0 0.00 0.00 0.00 91 1010.8
20260506144028 43 202 0.0 1.0 0.00 0.00 0.00 92 1010.7
20260506143048 43 209 2.0 3.0 0.00 0.00 0.00 92 1010.7
20260506142029 43 199 1.0 2.0 0.00 0.00 0.00 93 1010.8
20260506141029 43 196 1.0 2.0 0.00 0.00 0.00 93 1010.7
20260506140030 43 205 1.0 2.0 0.00 0.00 0.00 92 1010.7
20260506135029 43 216 0.0 2.0 0.00 0.00 0.00 92 1010.6
20260506134029 43 213 2.0 3.0 0.00 0.00 0.00 91 1010.6
20260506133029 43 208 2.0 4.0 0.00 0.00 0.00 93 1010.5
20260506132029 43 205 2.0 3.0 0.00 0.00 0.00 92 1010.6
20260506131030 44 192 2.0 5.0 0.00 0.00 0.00 93 1010.6
20260506130031 44 189 1.0 4.0 0.00 0.00 0.00 92 1010.5
20260506125030 44 207 2.0 3.0 0.00 0.00 0.00 91 1010.6
20260506124050 44 198 2.0 3.0 0.00 0.00 0.00 91 1010.6
20260506123031 44 248 2.0 3.0 0.00 0.00 0.00 90 1010.5
20260506122111 44 276 1.0 3.0 0.00 0.00 0.00 90 1010.5
20260506121031 44 276 2.0 4.0 0.00 0.00 0.00 89 1010.6
20260506120052 44 306 2.0 3.0 0.00 0.00 0.00 89 1010.7
20260506115032 45 300 2.0 3.0 0.00 0.00 0.00 89 1010.8
20260506114051 45 289 3.0 4.0 0.00 0.00 0.00 88 1011.0
20260506113036 45 258 1.0 3.0 0.00 0.00 0.00 89 1011.0
20260506112051 46 305 1.0 3.0 0.00 0.00 0.00 92 1010.9
20260506111054 46 222 1.0 3.0 0.00 0.00 0.00 92 1010.8
20260506110031 46 213 1.0 2.0 0.00 0.00 0.00 92 1010.7
20260506105038 46 210 1.0 2.0 0.00 0.00 0.00 90 1010.4
20260506104017 46 213 1.0 2.0 0.00 0.00 0.00 89 1010.3
20260506103032 47 207 2.0 4.0 0.00 0.00 0.00 89 1010.2
20260506102019 47 212 2.0 3.0 0.00 0.00 0.00 87 1010.1
20260506101037 47 216 2.0 3.0 0.00 0.00 0.00 84 1010.2
20260506100018 48 222 2.0 4.0 0.00 0.00 0.00 81 1010.1
20260506095018 49 216 2.0 4.0 0.00 0.00 0.00 78 1010.1
20260506094018 49 214 2.0 5.0 0.00 0.00 0.00 76 1010.1
20260506093018 49 253 1.0 3.0 0.00 0.00 0.00 76 1009.8
20260506092018 49 222 1.0 3.0 0.00 0.00 0.00 77 1009.8
20260506091019 49 234 2.0 4.0 0.00 0.00 0.00 76 1009.7
20260506090020 49 237 2.0 5.0 0.00 0.00 0.00 77 1009.4
20260506085019 49 226 2.0 4.0 0.00 0.00 0.00 77 1009.6
20260506084100 49 253 2.0 4.0 0.00 0.00 0.00 76 1009.7
20260506083041 49 243 2.0 5.0 0.00 0.00 0.00 76 1009.9
20260506082019 49 254 2.0 4.0 0.00 0.00 0.00 76 1009.8
20260506081039 49 246 2.0 5.0 0.00 0.00 0.00 76 1009.8
20260506073021 50 238 3.0 8.0 0.00 0.00 0.00 76 1009.8
20260506072020 50 222 2.0 5.0 0.00 0.00 0.00 76 1009.6
20260506071020 50 239 2.0 4.0 0.00 0.00 0.00 76 1009.5
20260506062021 50 210 3.0 7.0 0.00 0.00 0.00 77 1009.2
20260506061021 50 220 3.0 5.0 0.00 0.00 0.00 78 1009.2
20260506051042 51 210 4.0 9.0 0.00 0.00 0.00 80 1009.2
20260506045022 52 206 3.0 8.0 0.00 0.00 0.00 81 1009.0
20260506044044 52 200 4.0 7.0 0.00 0.00 0.00 80 1008.9
20260506043024 52 198 3.0 7.0 0.00 0.00 0.00 80 1008.6
20260506042017 52 192 3.0 5.0 0.00 0.00 0.00 80 1008.4
20260506041043 52 199 3.0 9.0 0.00 0.00 0.00 80 1008.3
20260506040018 52 203 3.0 8.0 0.00 0.00 0.00 79 1008.1
20260506035017 53 195 3.0 5.0 0.00 0.00 0.00 78 1007.9
20260506034017 53 196 3.0 7.0 0.00 0.00 0.00 77 1007.8
20260506033018 53 198 4.0 9.0 0.00 0.00 0.00 77 1007.5
20260506032018 53 211 4.0 6.0 0.00 0.00 0.00 77 1007.5
20260506031019 53 211 4.0 8.0 0.00 0.00 0.00 77 1007.4
20260506030018 53 208 5.0 9.0 0.00 0.00 0.00 76 1007.4
20260506025020 54 232 4.0 8.0 0.00 0.00 0.00 75 1007.5
20260506024019 55 223 4.0 8.0 0.00 0.00 0.00 74 1007.2
20260506023019 55 218 4.0 8.0 0.00 0.00 0.00 73 1007.4
20260506022039 55 237 4.0 9.0 0.00 0.00 0.00 73 1007.6